Tatalina, AK

9:48 PM AKDT on May 22, 2018 (GMT -0800)
Tatalina

Weather History for PATL - July, 2013

Change the Weather History Date:

Sunday, July 14, 2013

  Actual Average Record
Temperature  
Mean Temperature 66 °F -  
Max Temperature 73 °F 64 °F 81 °F (2016)
Min Temperature 60 °F 48 °F 10 °F (2006)
Cooling Degree Days 2    
Growing Degree Days 16 (Base 50)    
Moisture  
Dew Point 48 °F    
Average Humidity 51    
Maximum Humidity 67    
Minimum Humidity 36    
Precipitation  
Precipitation 0.00 in - - ()
Sea Level Pressure  
Sea Level Pressure 30.15 in    
Wind  
Wind Speed 7 mph (SSW)    
Max Wind Speed 14 mph    
Max Gust Speed 24 mph    
Visibility 10 miles    
Events      
Averages and records for this station are not official NWS values.
T = Trace of Precipitation, MM = Missing Value Source: NWS Daily Summary

Daily Weather History Graph

Daily Weather History Graph

Search for Another Location

Airport or City:

Astronomy

Jul. 14, 2013 Rise Set
Actual Time 4:54 AM AKDT 12:03 AM AKDT
Civil Twilight 3:02 AM AKDT 1:57 AM AKDT
Nautical Twilight Sun does not set Sun does not set
Astronomical Twilight Sun does not set Sun does not set
Moon 2:03 PM AKDT (7/14) 12:23 AM AKDT (7/14)
Length of Visible Light 22h 55m
Length of Day
19h 09m
Waxing Crescent, 36% of the Moon is Illuminated
Jul 14
Waxing Crescent
Jul 15
First Quarter
Jul 22
Full
Jul 29
Last Quarter
Aug 6
New

Hourly Weather History & Observations

Time (AKDT) Temp. Dew Point Humidity Pressure Visibility Wind Dir Wind Speed Gust Speed Precip Events Conditions
12:55 AM 72.3 °F 47.7 °F 41% 30.03 in 10.0 mi West 3.5 mph - N/A   Clear
1:55 AM 70.5 °F 48.2 °F 45% 30.04 in 10.0 mi West 4.6 mph - N/A   Clear
2:55 AM 67.8 °F 48.4 °F 50% 30.06 in 3.0 mi SW 4.6 mph - N/A   Clear
3:55 AM 67.1 °F 46.2 °F 47% 30.07 in 8.0 mi SW 3.5 mph - N/A   Clear
4:55 AM 64.8 °F 46.9 °F 52% 30.09 in 10.0 mi SSW 4.6 mph - N/A   Mostly Cloudy
5:55 AM 63.3 °F 48.2 °F 58% 30.11 in 10.0 mi South 8.1 mph - N/A   Mostly Cloudy
6:55 AM 61.2 °F 49.6 °F 66% 30.12 in 10.0 mi SSW 4.6 mph - N/A   Overcast
7:55 AM 61.0 °F 50.0 °F 67% 30.14 in 10.0 mi SSW 5.8 mph - N/A   Mostly Cloudy
8:55 AM 60.6 °F 48.4 °F 64% 30.16 in 10.0 mi South 5.8 mph - N/A   Overcast
9:55 AM 60.8 °F 48.9 °F 65% 30.17 in 10.0 mi SSW 3.5 mph - N/A   Mostly Cloudy
10:55 AM 63.7 °F 49.1 °F 59% 30.18 in 10.0 mi SSE 8.1 mph - N/A   Mostly Cloudy
11:55 AM 67.8 °F 50.2 °F 53% 30.18 in 10.0 mi Variable 5.8 mph - N/A   Clear
12:55 PM 71.1 °F 49.3 °F 46% 30.17 in 10.0 mi South 8.1 mph - N/A   Partly Cloudy
1:55 PM 71.1 °F 47.8 °F 44% 30.17 in 10.0 mi SSW 10.4 mph - N/A   Clear
2:55 PM 72.7 °F 44.2 °F 36% 30.17 in 10.0 mi SSE 12.7 mph 19.6 mph N/A   Clear
3:55 PM 73.2 °F 45.0 °F 36% 30.17 in 10.0 mi South 11.5 mph 19.6 mph N/A   Partly Cloudy
4:55 PM 72.5 °F 46.0 °F 39% 30.17 in 10.0 mi SSW 11.5 mph 21.9 mph N/A   Partly Cloudy
5:55 PM 71.1 °F 45.5 °F 40% 30.17 in 10.0 mi South 13.8 mph 24.2 mph N/A   Clear
6:55 PM 71.1 °F 46.0 °F 41% 30.16 in 10.0 mi SSW 13.8 mph 20.7 mph N/A   Clear
7:55 PM 70.0 °F 47.7 °F 45% 30.17 in 10.0 mi SSW 12.7 mph - N/A   Clear
8:55 PM 68.2 °F 49.1 °F 50% 30.18 in 10.0 mi SSW 12.7 mph - N/A   Clear
9:55 PM 64.8 °F 47.8 °F 54% 30.20 in 10.0 mi SSW 13.8 mph 21.9 mph N/A   Clear
10:55 PM 62.2 °F 48.0 °F 60% 30.21 in 10.0 mi SSW 9.2 mph - N/A   Scattered Clouds
11:55 PM 60.8 °F 48.2 °F 63% 30.22 in 10.0 mi SSW 9.2 mph - N/A   Mostly Cloudy